Погода в Кокореве

Россия / Кировская область     57°15′02″N   49°33′53″E
темп.,
°C
ветер,
м/с
пор.,
м/с
влажн.,
%
обл.,
%
осадки,
мм/ч
давл.,
гПа
погр.,
м
14 апреля, ср
ср1400:00+3ююз379795 0.0 103189
03:00+3ююз358351 0.0 103055
06:00+2ю248922 0.0 103058
09:00+4ю25100100 0.0 102982
12:00+7ю34100100 0.0 1029114
15:00+11ю279719 0.0 1027243
18:00+8ю33876 0.0 102521
21:00+6ю33856 0.0 102527
15 апреля, чт
чт1500:00+6ююз45895 0.0 102446
03:00+6ююз33925 0.0 102331
06:00+6ююз34935 0.0 102255
09:00+12ююз34820 0.0 1021250
12:00+15юз33701 0.0 1020700
15:00+16ююз226499 0.0 10191040
18:00+13сз1178100 0.9 101917
21:00+7ссв81491100 2.8 1022524
16 апреля, пт
пт1600:00+6св71385100 1.1 1023639
03:00+5св71278100 1.1 1025592
06:00+4св7137664 0.0 1026619
09:00+6всв810575 0.0 1027781
12:00+9всв78450 0.0 10271035
15:00+10св68390 0.0 10271180
18:00+8св48510 0.0 1028236
21:00+4св37640 0.0 1029113
17 апреля, сб
сб1700:00+2св37700 0.0 1029134
03:00+1св35724 0.0 103075
06:00+2ссв37684 0.0 1030180
09:00+7ссв46510 0.0 1030738
12:00+10ссв45445 0.0 10291336
15:00+11с56425 0.0 10281582
18:00+9ссз35555 0.0 1028114
21:00+6ссз36685 0.0 102884
18 апреля, вс
вс1800:00+4с36740 0.0 1028102
03:00+3ссз35760 0.0 102968
06:00+3ссз39790 0.0 1029265
09:00+8с58595 0.0 1029989
12:00+9ссв6752100 0.0 10291647
15:00+7ссв575381 0.0 10311490
18:00+6всв594637 0.0 1031551
21:00+2всв410550 0.0 1033275